SWA2900 KHOU-KDEN

Flight info

Callsign SWA2900
Flight time N/A
Altitude 34000
Route STYCK8 DOLEY MRMAC ROLLS TOTOE HALEN NIIXX4
Aircraft B737/M-SADE2E3GIJ4RWZ/LB1D1

Departure

Time N/A
Airport William P. Hobby Airport (KHOU)

Arrival

Time 2026-05-03 21:49
Airport Denver International Airport (KDEN)
Time Latitude Longitude Altitude Speed Heading
2026-05-03 20:15 33.75321 -97.38764 34135 ft 349 kts 326°
2026-05-03 20:15 33.79594 -97.41561 34131 ft 350 kts 326°
2026-05-03 20:16 33.83875 -97.44366 34119 ft 350 kts 326°
2026-05-03 20:16 33.88156 -97.47176 34115 ft 351 kts 326°
2026-05-03 20:17 33.92437 -97.49987 34112 ft 350 kts 326°
2026-05-03 20:17 33.96695 -97.52788 34108 ft 351 kts 326°
2026-05-03 20:18 34.00987 -97.55614 34106 ft 351 kts 326°
2026-05-03 20:18 34.05281 -97.58444 34107 ft 351 kts 326°
2026-05-03 20:19 34.09571 -97.61276 34104 ft 352 kts 326°
2026-05-03 20:19 34.13872 -97.64117 34102 ft 352 kts 326°
2026-05-03 20:20 34.18168 -97.66959 34095 ft 352 kts 326°
2026-05-03 20:20 34.22471 -97.69809 34098 ft 352 kts 326°
2026-05-03 20:21 34.26741 -97.72640 34094 ft 353 kts 326°
2026-05-03 20:21 34.31042 -97.75495 34091 ft 353 kts 326°
2026-05-03 20:22 34.35346 -97.78356 34094 ft 353 kts 326°
2026-05-03 20:22 34.39655 -97.81223 34096 ft 353 kts 326°
2026-05-03 20:23 34.43964 -97.84093 34093 ft 353 kts 326°
2026-05-03 20:23 34.48282 -97.86973 34091 ft 354 kts 326°
2026-05-03 20:24 34.52594 -97.89852 34096 ft 354 kts 326°
2026-05-03 20:24 34.56909 -97.92738 34091 ft 354 kts 326°
2026-05-03 20:25 34.61225 -97.95627 34089 ft 354 kts 326°
2026-05-03 20:25 34.65542 -97.98520 34083 ft 355 kts 326°
2026-05-03 20:26 34.69835 -98.01401 34077 ft 355 kts 326°
2026-05-03 20:26 34.74160 -98.04307 34065 ft 355 kts 326°
2026-05-03 20:27 34.78478 -98.07211 34052 ft 355 kts 326°
2026-05-03 20:27 34.82739 -98.10215 34039 ft 352 kts 320°
2026-05-03 20:28 34.86289 -98.14220 34037 ft 346 kts 307°
2026-05-03 20:28 34.89313 -98.18794 34028 ft 347 kts 306°
2026-05-03 20:29 34.92318 -98.23409 34020 ft 348 kts 306°
2026-05-03 20:29 34.95333 -98.28022 34020 ft 348 kts 306°
2026-05-03 20:30 34.98356 -98.32633 34018 ft 348 kts 306°
2026-05-03 20:30 35.01361 -98.37215 34016 ft 348 kts 306°
2026-05-03 20:31 35.04383 -98.41826 34023 ft 347 kts 306°
2026-05-03 20:31 35.07396 -98.46429 34021 ft 347 kts 306°
2026-05-03 20:32 35.10410 -98.51039 34028 ft 347 kts 306°
2026-05-03 20:32 35.13420 -98.55650 34025 ft 347 kts 306°
2026-05-03 20:33 35.16423 -98.60256 34024 ft 347 kts 306°
2026-05-03 20:33 35.19412 -98.64846 34013 ft 347 kts 306°
2026-05-03 20:34 35.22416 -98.69466 34024 ft 347 kts 306°
2026-05-03 20:34 35.25417 -98.74088 34012 ft 347 kts 306°
2026-05-03 20:35 35.27914 -98.77937 34029 ft 347 kts 306°
2026-05-03 20:35 35.30917 -98.82573 34023 ft 347 kts 306°
2026-05-03 20:36 35.33917 -98.87210 34020 ft 347 kts 306°
2026-05-03 20:36 35.36912 -98.91847 34031 ft 347 kts 306°
2026-05-03 20:37 35.39905 -98.96485 34030 ft 347 kts 306°
2026-05-03 20:37 35.42879 -99.01101 34035 ft 347 kts 306°
2026-05-03 20:38 35.45867 -99.05743 34034 ft 347 kts 306°
2026-05-03 20:38 35.48855 -99.10393 34028 ft 347 kts 306°
2026-05-03 20:39 35.51839 -99.15042 34035 ft 347 kts 305°
2026-05-03 20:39 35.54819 -99.19692 34011 ft 347 kts 305°
2026-05-03 20:40 35.57798 -99.24347 34009 ft 346 kts 305°
2026-05-03 20:40 35.60778 -99.29010 34010 ft 347 kts 305°
2026-05-03 20:41 35.63751 -99.33668 34008 ft 347 kts 305°
2026-05-03 20:41 35.66716 -99.38319 33996 ft 347 kts 305°
2026-05-03 20:42 35.69692 -99.42995 33995 ft 347 kts 305°
2026-05-03 20:42 35.72735 -99.47595 33987 ft 349 kts 311°
2026-05-03 20:43 35.76331 -99.51649 33975 ft 351 kts 314°
2026-05-03 20:43 35.79972 -99.55647 33972 ft 350 kts 314°
2026-05-03 20:44 35.83600 -99.59652 33972 ft 350 kts 314°
2026-05-03 20:44 35.87219 -99.63668 33972 ft 350 kts 314°
2026-05-03 20:45 35.90810 -99.67667 33965 ft 350 kts 313°
2026-05-03 20:45 35.94424 -99.71698 33963 ft 350 kts 313°
2026-05-03 20:46 35.98038 -99.75736 33965 ft 350 kts 313°
2026-05-03 20:46 36.01657 -99.79785 33967 ft 351 kts 313°
2026-05-03 20:47 36.05275 -99.83838 33972 ft 351 kts 313°
2026-05-03 20:47 36.08867 -99.87866 33971 ft 351 kts 313°
2026-05-03 20:48 36.12482 -99.91927 33976 ft 351 kts 313°
2026-05-03 20:48 36.16100 -99.95994 33978 ft 351 kts 313°
2026-05-03 20:49 36.19709 -100.00059 33978 ft 351 kts 313°
2026-05-03 20:49 36.23324 -100.04134 33973 ft 351 kts 313°
2026-05-03 20:50 36.26917 -100.08191 33963 ft 351 kts 313°
2026-05-03 20:50 36.30531 -100.12276 33954 ft 351 kts 313°
2026-05-03 20:51 36.34144 -100.16365 33949 ft 351 kts 313°
2026-05-03 20:51 36.37752 -100.20454 33937 ft 352 kts 313°
2026-05-03 20:52 36.41369 -100.24559 33924 ft 352 kts 313°
2026-05-03 20:52 36.44990 -100.28674 33932 ft 352 kts 313°
2026-05-03 20:53 36.48606 -100.32789 33924 ft 352 kts 313°
2026-05-03 20:53 36.52173 -100.36853 33934 ft 352 kts 313°
2026-05-03 20:54 36.55790 -100.40979 33926 ft 353 kts 313°
2026-05-03 20:54 36.61220 -100.47184 33931 ft 353 kts 312°
2026-05-03 20:55 36.64836 -100.51324 33936 ft 353 kts 312°
2026-05-03 20:55 36.68451 -100.55467 33936 ft 353 kts 312°
2026-05-03 20:56 36.72043 -100.59591 33923 ft 353 kts 312°
2026-05-03 20:56 36.75665 -100.63754 33922 ft 354 kts 312°
2026-05-03 20:57 36.79282 -100.67916 33920 ft 354 kts 312°
2026-05-03 20:57 36.82900 -100.72086 33932 ft 354 kts 312°
2026-05-03 20:58 36.86519 -100.76262 33944 ft 354 kts 312°
2026-05-03 20:58 36.90141 -100.80448 33953 ft 354 kts 312°
2026-05-03 20:59 36.93739 -100.84611 33967 ft 354 kts 312°
2026-05-03 20:59 36.97360 -100.88807 33983 ft 355 kts 312°
2026-05-03 21:00 37.00367 -100.92296 33981 ft 355 kts 312°
2026-05-03 21:00 37.04578 -100.97220 33983 ft 353 kts 309°
2026-05-03 21:01 37.07822 -101.01818 33988 ft 351 kts 306°
2026-05-03 21:01 37.10973 -101.06455 33942 ft 352 kts 306°
2026-05-03 21:02 37.14154 -101.11126 33932 ft 352 kts 306°
2026-05-03 21:02 37.17347 -101.15801 33915 ft 353 kts 306°
2026-05-03 21:03 37.20538 -101.20471 33925 ft 353 kts 306°
2026-05-03 21:03 37.23735 -101.25151 33923 ft 353 kts 306°
2026-05-03 21:04 37.26930 -101.29834 33931 ft 353 kts 306°
2026-05-03 21:04 37.30120 -101.34518 33926 ft 353 kts 306°
2026-05-03 21:05 37.33287 -101.39174 33914 ft 353 kts 306°
2026-05-03 21:05 37.36480 -101.43875 33903 ft 353 kts 306°
2026-05-03 21:06 37.39673 -101.48583 33875 ft 354 kts 306°
2026-05-03 21:06 37.42867 -101.53298 33875 ft 354 kts 306°
2026-05-03 21:07 37.46060 -101.58020 33890 ft 354 kts 306°
2026-05-03 21:07 37.49255 -101.62751 33901 ft 354 kts 306°
2026-05-03 21:08 37.52449 -101.67488 33908 ft 355 kts 306°
2026-05-03 21:08 37.55644 -101.72232 33903 ft 355 kts 306°
2026-05-03 21:09 37.58814 -101.76947 33910 ft 355 kts 306°
2026-05-03 21:09 37.62002 -101.81696 33911 ft 355 kts 306°
2026-05-03 21:10 37.65197 -101.86462 33900 ft 355 kts 306°
2026-05-03 21:10 37.68389 -101.91230 33886 ft 355 kts 306°
2026-05-03 21:11 37.71579 -101.96002 33871 ft 355 kts 306°
2026-05-03 21:11 37.74766 -102.00777 33859 ft 356 kts 306°
2026-05-03 21:12 37.77936 -102.05535 33851 ft 356 kts 306°
2026-05-03 21:12 37.81125 -102.10325 33833 ft 356 kts 306°
2026-05-03 21:13 37.84351 -102.15083 33837 ft 357 kts 308°
2026-05-03 21:13 37.87757 -102.19670 33841 ft 358 kts 309°
2026-05-03 21:14 37.91182 -102.24242 33832 ft 358 kts 308°
2026-05-03 21:14 37.94591 -102.28833 33840 ft 358 kts 308°
2026-05-03 21:15 37.98002 -102.33451 33846 ft 358 kts 308°
2026-05-03 21:15 38.01381 -102.38038 33862 ft 358 kts 308°
2026-05-03 21:16 38.04783 -102.42665 33876 ft 358 kts 308°
2026-05-03 21:16 38.08181 -102.47293 33895 ft 359 kts 308°
2026-05-03 21:17 38.11007 -102.51147 33903 ft 359 kts 308°
2026-05-03 21:17 38.14979 -102.56573 33904 ft 359 kts 308°
2026-05-03 21:18 38.18376 -102.61220 33904 ft 359 kts 308°
2026-05-03 21:18 38.21777 -102.65879 33896 ft 359 kts 308°
2026-05-03 21:19 38.25172 -102.70541 33895 ft 359 kts 308°
2026-05-03 21:19 38.28545 -102.75179 33881 ft 359 kts 308°
2026-05-03 21:20 38.31934 -102.79847 33857 ft 359 kts 308°
2026-05-03 21:20 38.35322 -102.84522 33842 ft 359 kts 308°
2026-05-03 21:21 38.38709 -102.89201 33823 ft 359 kts 308°
2026-05-03 21:21 38.42092 -102.93882 33820 ft 359 kts 308°
2026-05-03 21:22 38.45472 -102.98565 33827 ft 359 kts 308°
2026-05-03 21:22 38.48852 -103.03256 33818 ft 359 kts 308°
2026-05-03 21:23 38.52208 -103.07920 33824 ft 359 kts 308°
2026-05-03 21:23 38.55582 -103.12616 33819 ft 359 kts 308°
2026-05-03 21:24 38.58962 -103.17329 33825 ft 359 kts 308°
2026-05-03 21:24 38.62344 -103.22049 33826 ft 359 kts 308°
2026-05-03 21:25 38.65146 -103.25967 33808 ft 359 kts 308°
2026-05-03 21:25 38.66841 -103.28341 33423 ft 359 kts 308°
2026-05-03 21:25 38.68514 -103.30680 33015 ft 354 kts 308°
2026-05-03 21:26 38.70158 -103.32982 32650 ft 347 kts 308°
2026-05-03 21:26 38.71777 -103.35252 32263 ft 343 kts 308°
2026-05-03 21:26 38.73380 -103.37503 31884 ft 341 kts 308°
2026-05-03 21:26 38.74984 -103.39759 31519 ft 346 kts 308°
2026-05-03 21:27 38.76612 -103.42051 31141 ft 348 kts 308°
2026-05-03 21:27 38.78234 -103.44330 30759 ft 344 kts 308°
2026-05-03 21:27 38.79837 -103.46584 30391 ft 339 kts 308°
2026-05-03 21:27 38.81396 -103.48779 30026 ft 335 kts 308°
2026-05-03 21:28 38.82962 -103.50989 29591 ft 334 kts 308°
2026-05-03 21:28 38.84525 -103.53199 29179 ft 333 kts 308°
2026-05-03 21:28 38.86088 -103.55413 28778 ft 335 kts 308°
2026-05-03 21:28 38.87655 -103.57632 28376 ft 335 kts 308°
2026-05-03 21:29 38.89209 -103.59833 27976 ft 330 kts 308°
2026-05-03 21:29 38.90738 -103.61998 27595 ft 324 kts 308°
2026-05-03 21:29 38.92245 -103.64136 27210 ft 323 kts 308°
2026-05-03 21:29 38.93730 -103.66246 26843 ft 323 kts 308°
2026-05-03 21:30 38.95239 -103.68392 26472 ft 325 kts 308°
2026-05-03 21:30 38.96760 -103.70556 26089 ft 326 kts 308°
2026-05-03 21:30 38.98271 -103.72704 25711 ft 321 kts 308°
2026-05-03 21:30 38.99758 -103.74819 25330 ft 316 kts 308°
2026-05-03 21:31 39.01226 -103.76908 24964 ft 314 kts 308°
2026-05-03 21:31 39.02693 -103.79001 24591 ft 315 kts 308°
2026-05-03 21:31 39.04163 -103.81100 24214 ft 317 kts 308°
2026-05-03 21:31 39.05640 -103.83209 23823 ft 316 kts 309°
2026-05-03 21:32 39.07103 -103.85297 23426 ft 312 kts 309°
2026-05-03 21:32 39.08547 -103.87360 22980 ft 308 kts 309°
2026-05-03 21:32 39.09976 -103.89403 22569 ft 307 kts 309°
2026-05-03 21:32 39.11408 -103.91454 22181 ft 309 kts 309°
2026-05-03 21:33 39.12848 -103.93520 21792 ft 311 kts 309°
2026-05-03 21:33 39.14293 -103.95609 21418 ft 313 kts 309°
2026-05-03 21:33 39.15742 -103.97713 21043 ft 314 kts 309°
2026-05-03 21:33 39.17176 -103.99797 20675 ft 315 kts 309°
2026-05-03 21:34 39.18651 -104.01942 20297 ft 317 kts 309°
2026-05-03 21:34 39.20096 -104.04045 19922 ft 317 kts 309°
2026-05-03 21:34 39.21552 -104.06163 19542 ft 313 kts 309°
2026-05-03 21:34 39.22991 -104.08258 19169 ft 309 kts 310°
2026-05-03 21:35 39.24410 -104.10325 18801 ft 306 kts 310°
2026-05-03 21:35 39.25828 -104.12392 18435 ft 307 kts 310°
2026-05-03 21:35 39.27243 -104.14457 18059 ft 308 kts 310°
2026-05-03 21:35 39.28646 -104.16505 17664 ft 308 kts 310°
2026-05-03 21:36 39.29948 -104.18666 17270 ft 303 kts 297°
2026-05-03 21:36 39.30629 -104.21207 16955 ft 297 kts 282°
2026-05-03 21:36 39.31049 -104.23805 16595 ft 295 kts 281°
2026-05-03 21:36 39.31439 -104.26397 16247 ft 293 kts 280°
2026-05-03 21:37 39.31828 -104.28970 15895 ft 291 kts 281°
2026-05-03 21:37 39.32222 -104.31533 15556 ft 290 kts 281°
2026-05-03 21:37 39.32619 -104.34076 15223 ft 288 kts 281°
2026-05-03 21:37 39.33020 -104.36613 14890 ft 288 kts 281°
2026-05-03 21:38 39.33421 -104.39150 14548 ft 287 kts 281°
2026-05-03 21:38 39.33821 -104.41675 14214 ft 285 kts 281°
2026-05-03 21:38 39.34213 -104.44152 13874 ft 280 kts 281°
2026-05-03 21:38 39.34598 -104.46601 13521 ft 275 kts 281°
2026-05-03 21:39 39.34975 -104.49000 13190 ft 270 kts 281°
2026-05-03 21:39 39.35345 -104.51367 12856 ft 267 kts 281°
2026-05-03 21:39 39.35710 -104.53702 12554 ft 263 kts 281°
2026-05-03 21:39 39.36081 -104.55998 12262 ft 259 kts 285°
2026-05-03 21:40 39.36916 -104.57995 11969 ft 257 kts 311°
2026-05-03 21:40 39.38320 -104.59366 11788 ft 253 kts 332°
2026-05-03 21:40 39.40003 -104.60030 11598 ft 252 kts 345°
2026-05-03 21:40 39.41704 -104.60473 11392 ft 248 kts 346°
2026-05-03 21:41 39.43375 -104.60886 11242 ft 243 kts 347°
2026-05-03 21:41 39.45035 -104.61301 11065 ft 243 kts 346°
2026-05-03 21:41 39.46139 -104.61582 10953 ft 244 kts 346°
2026-05-03 21:42 39.47115 -104.61831 10854 ft 245 kts 346°
2026-05-03 21:42 39.48723 -104.62240 10677 ft 246 kts 346°
2026-05-03 21:42 39.50294 -104.62650 10481 ft 245 kts 346°
2026-05-03 21:42 39.51942 -104.63077 10352 ft 244 kts 346°
2026-05-03 21:43 39.53610 -104.63514 10160 ft 245 kts 346°
2026-05-03 21:43 39.55282 -104.63953 9979 ft 244 kts 346°
2026-05-03 21:43 39.56936 -104.64382 9767 ft 241 kts 346°
2026-05-03 21:43 39.58559 -104.64807 9574 ft 236 kts 346°
2026-05-03 21:44 39.60165 -104.65227 9446 ft 236 kts 346°
2026-05-03 21:44 39.61792 -104.65660 9229 ft 238 kts 345°
2026-05-03 21:44 39.63407 -104.66081 9073 ft 237 kts 346°
2026-05-03 21:44 39.65052 -104.66278 8857 ft 237 kts 355°
2026-05-03 21:45 39.66669 -104.66269 8552 ft 232 kts 358°
2026-05-03 21:45 39.68261 -104.66232 8276 ft 222 kts 357°
2026-05-03 21:45 39.69756 -104.66212 7982 ft 212 kts 356°
2026-05-03 21:45 39.71166 -104.66195 7719 ft 194 kts 356°
2026-05-03 21:46 39.72441 -104.66177 7499 ft 174 kts 356°
2026-05-03 21:46 39.73621 -104.66162 7287 ft 161 kts 355°
2026-05-03 21:46 39.74689 -104.66150 7091 ft 149 kts 355°
2026-05-03 21:46 39.75723 -104.66137 6886 ft 148 kts 354°
2026-05-03 21:47 39.76748 -104.66130 6692 ft 148 kts 354°
2026-05-03 21:47 39.77443 -104.66121 6592 ft 148 kts 355°
2026-05-03 21:47 39.77654 -104.66119 6542 ft 149 kts 355°
2026-05-03 21:47 39.78601 -104.66101 6398 ft 153 kts 355°
2026-05-03 21:48 39.79655 -104.66091 6155 ft 148 kts 356°
2026-05-03 21:48 39.80661 -104.66084 5923 ft 142 kts 356°
2026-05-03 21:48 39.81631 -104.66062 5764 ft 141 kts 357°
2026-05-03 21:48 39.82639 -104.66057 5546 ft 146 kts 360°
2026-05-03 21:49 39.83522 -104.66041 5433 ft 137 kts
2026-05-03 21:49 39.84264 -104.66038 5415 ft 106 kts
2026-05-03 21:49 39.84885 -104.66030 5402 ft 72 kts
2026-05-03 21:49 39.85252 -104.66137 5394 ft 38 kts 334°
2026-05-03 21:50 39.85399 -104.66230 5393 ft 18 kts 345°
2026-05-03 21:50 39.85521 -104.66236 5392 ft 17 kts 356°
2026-05-03 21:50 39.85616 -104.66341 5388 ft 21 kts 335°
2026-05-03 21:50 39.85766 -104.66349 5384 ft 22 kts
2026-05-03 21:51 39.85977 -104.66348 5384 ft 31 kts 351°
2026-05-03 21:51 39.86050 -104.66505 5376 ft 20 kts 330°
2026-05-03 21:51 39.86128 -104.66710 5377 ft 28 kts 271°
2026-05-03 21:51 39.86161 -104.66847 5374 ft 7 kts 344°
2026-05-03 21:52 39.86208 -104.66849 5374 ft 7 kts 360°
2026-05-03 21:52 39.86250 -104.66849 5373 ft 2 kts
2026-05-03 21:52 39.86251 -104.66849 5373 ft 0 kts